Flag for U.S.A. Weather past 2 weeks in Savannah, Georgia, U.S.A.

Now
70 °F

Clear.


Feels Like: 70 °F
Forecast: 67 / 76 °F
Wind: 2 mph from North

Location: Hunter U. S. Army Airfield

Current Time: Apr 19, 2015 at 7:44:39 AM

Latest Report: Apr 19, 2015 at 6:58 AM


Visibility: 10 mi

Pressure: 29.93 "Hg

Humidity: 100%

Dew point: 70 °F

Location of SavannahLocation

Historic Weather in Savannah — Graph

°F

Savannah temperature yesterday

Maximum temperature yesterday: 77 °F (at 3:58 PM)
Minimum temperature yesterday: 67 °F (at 6:58 AM)
Average temperature yesterday: 71 °F

Past Weeks' High & Low Weather Summary

 TemperatureHumidityPressure
High86 °F (Apr 10, 1:58 PM)100% (Apr 7, 12:58 AM)30.29 "Hg (Apr 7, 12:58 AM)
Low53 °F (Apr 5, 6:58 AM)34% (Apr 5, 10:58 AM)29.90 "Hg (Apr 18, 4:58 PM)
Average70 °F85%30.11 "Hg
* Reported Apr 4 5:58 AM — Apr 19 5:58 AM, Savannah, Weather by CustomWeather, © 2015

Note: Actual official high and low records may vary slightly from our data, if they occured in-between our weather recording intervals... More about our weather records

Advertising

Savannah weather history for previous 24 hours

 ConditionsComfort  
Time TempWeatherWind HumidityBarometerVisibility
5:58 AM
Sun, Apr 19
69 °FPassing clouds.3 mph100%29.91 "Hg10 mi
4:58 AM69 °FPassing clouds.5 mph100%29.90 "Hg10 mi
3:58 AM69 °FClear.1 mph100%29.91 "Hg10 mi
2:58 AM70 °FPassing clouds.2 mph100%29.92 "Hg10 mi
1:58 AM69 °FPassing clouds.2 mph100%29.94 "Hg10 mi
12:58 AM70 °FPassing clouds.3 mph100%29.94 "Hg10 mi
11:58 PM
Sat, Apr 18
69 °FOvercast.2 mph100%29.96 "Hg10 mi
10:58 PM69 °FPassing clouds.3 mph100%29.96 "Hg10 mi
9:58 PM69 °FPassing clouds.5 mph100%29.97 "Hg10 mi
8:58 PM69 °FClear.6 mph100%29.95 "Hg10 mi
7:58 PM71 °FSunny.6 mph95%29.92 "Hg10 mi
6:58 PM73 °FSunny.9 mph87%29.91 "Hg10 mi
5:58 PM77 °FSunny.8 mph81%29.90 "Hg10 mi
4:58 PM77 °FPassing clouds.8 mph82%29.90 "Hg10 mi
3:58 PM77 °FMostly cloudy.8 mph83%29.91 "Hg10 mi
2:58 PM76 °FBroken clouds.6 mph86%29.94 "Hg10 mi
2:03 PM75 °FPartly sunny.5 mph83%29.95 "Hg10 mi
1:58 PM74 °FLight rain. Partly sunny.6 mph91%29.96 "Hg10 mi
12:58 PM75 °FPartly sunny.7 mph81%29.98 "Hg10 mi
11:58 AM74 °FOvercast.5 mph89%29.98 "Hg10 mi
10:58 AM72 °FLow clouds.6 mph98%29.98 "Hg10 mi
10:03 AM72 °FMostly cloudy.5 mph100%29.97 "Hg10 mi
9:03 AM70 °FLow clouds.5 mph100%29.96 "Hg10 mi
7:58 AM68 °FLow clouds.3 mph100%29.97 "Hg10 mi
Weather by CustomWeather, © 2015

See weather overviewHow to use our weather pages